Location: Contagem
(19.9167°S, 44.1000°W)
Time: 11:33:08
(UTC+00:00)

Daily predictions for brighter satellites

Satellite Brightness Start Highest point End
(mag) Time Altitude Azimuth Time Altitude Azimuth Time Altitude Azimuth
NOAA 12 4.2 20:52:25 10° SSE 20:57:47 89° WSW 21:03:07 10° NNW
Cosmos 1939 Rocket 3.0 20:55:01 10° SSE 20:58:56 53° E 21:02:52 10° N
Cosmos 1937 Rocket 4.1 20:56:34 10° NNE 21:01:13 35° E 21:05:53 10° SE
RESURS DK-1 4.2 20:57:21 10° SW 21:01:13 38° WNW 21:05:03 10° N
H-2A R/B 3.3 21:01:00 10° SE 21:05:12 22° E 21:09:19 10° NNE
Cosmos 1953 Rocket 4.2 21:01:29 10° SSE 21:05:36 35° E 21:09:43 10° NNE
PSLV R/B 3.8 21:02:36 10° SSE 21:06:39 88° ENE 21:10:32 10° NNW
CZ-2C R/B 3.2 21:02:28 10° SSE 21:08:07 78° ENE 21:13:25 10° N
Okean O Rocket 2.5 21:05:46 10° SE 21:09:34 28° E 21:13:20 10° NNE
PAYLOAD B 4.3 21:04:18 10° SSE 21:09:52 62° ENE 21:15:24 10° N
Cosmos 2058 4.2 21:07:36 10° SSE 21:10:42 20° E 21:13:46 10° NE
CZ-2C R/B 2.1 21:09:07 10° W 21:12:34 37° SSW 21:16:16 10° SE
Cosmos 1758 Rocket 4.3 21:09:23 10° SSW 21:13:40 58° W 21:17:54 10° N
GPS 2-15 Rocket1 4.5 21:10:02 10° NW 21:14:23 31° NNE 21:18:44 10° E
NOSS 2-1 (E) 4.4 21:08:56 10° SSW 21:15:50 54° ESE 21:20:40 10° NE
Cosmos 1538 Rocket 4.2 21:11:02 10° S 21:16:12 48° ESE 21:21:16 10° NNE
Meteor 1-4 Rocket 2.7 21:12:37 10° N 21:16:22 84° W 21:20:09 10° S
Cosmos 990 Rocket 4.3 21:11:15 10° NNW 21:16:24 70° WSW 21:21:38 10° S
GPS 2-14 Rocket1 3.2 21:14:24 10° WNW 21:18:08 47° NNE 21:21:20 13° E
Meteor 2-1 Rocket 4.3 21:15:06 10° N 21:21:00 84° E 21:26:52 10° S
Maqsat-H 4.4 21:17:08 10° WNW 21:22:37 17° NNW 21:25:41 10° NNE
CZ-2D R/B 3.4 21:19:58 10° SSE 21:23:47 54° E 21:27:33 10° N
Cosmos 1656 Rocket 4.3 21:21:39 10° NNW 21:26:56 55° WSW 21:32:16 10° S
Cosmos 1072 Rocket 4.5 21:21:25 10° N 21:27:27 62° E 21:33:36 10° SSE
H-2A R/B 3.2 21:23:47 10° SE 21:27:29 30° E 21:31:02 10° NNE
DMSP B5D2-2 4.0 21:22:30 10° NNE 21:27:44 81° ESE 21:33:03 10° S
Centaur AC-119 4.3 21:28:10 10° WNW 21:29:58 17° N 21:32:59 10° NNE
Genesis I 3.3 21:26:39 10° NNW 21:30:38 81° WSW 21:34:33 10° SSE
Centaur D-1AR AC-37 4.2 21:28:06 10° WNW 21:33:05 72° NNE 21:35:30 20° E
Cosmos 2082 Rocket 4.2 21:28:54 10° SW 21:33:50 32° WNW 21:38:45 10° NNW
Cosmos 1464 Rocket 3.9 21:28:23 10° N 21:34:26 65° E 21:40:32 10° SSE
SL-8 R/B 4.5 21:31:16 10° SSW 21:35:34 32° SE 21:37:57 20° E
Cosmos 1892 4.5 21:32:06 10° SSW 21:35:39 35° W 21:39:09 10° NNW
Cosmos 1825 2.0 21:32:00 10° S 21:35:48 80° E 21:39:32 10° N
H-2A R/B 3.7 21:31:37 10° WNW 21:36:39 83° SSW 21:59:12 20° ESE
H-2A R/B 3.7 21:31:37 10° WNW 21:36:39 83° SSW 21:59:13 20° ESE
H-2A R/B 3.7 21:31:37 10° WNW 21:36:39 83° SSW 21:59:11 20° ESE
Cosmos-2242 4.2 21:45:24 10° NNE 21:47:52 23° ENE 21:47:52 23° ENE
Delta 198 4.5 21:44:21 10° WSW 21:50:54 59° S 21:53:52 29° ESE
CZ-4B R/B 4.4 21:53:20 10° NW 21:55:35 18° W 21:57:50 10° SW
YAOGAN 1 3.3 21:58:09 32° ENE 21:58:09 32° ENE 22:01:32 10° NNE
Cosmos 158 Rocket 3.8 21:53:10 10° SSW 21:58:06 84° WNW 22:03:06 10° N
CZ-4B R/B 3.7 21:53:31 10° S 21:59:06 61° WSW 22:04:31 10° NNW
COSMOS 2455 4.3 21:54:41 10° SSE 21:57:02 18° SSE 21:57:02 18° SSE
Intelsat 5-1 Rocket 4.4 21:53:31 10° WSW 22:00:29 83° NNW 22:20:36 15° ENE
Lacrosse 5 3.2 21:56:34 10° S 21:59:36 23° SSE 21:59:36 23° SSE
Cosmos 923 Rocket 4.0 21:57:04 10° S 22:02:16 55° ESE 22:07:26 10° NNE
OAO 3 Rocket 3.5 21:57:39 10° WNW 22:02:31 59° SSW 22:04:23 35° SE
Nadezhda 4 Rocket 4.2 22:02:31 10° SSE 22:08:17 41° E 22:14:00 10° NNE
Feng Yun 1-1 Rocket 4.3 22:04:17 10° SSE 22:10:07 73° ENE 22:16:02 10° N
Aureole 3 4.1 22:09:30 10° N 22:15:42 60° E 22:16:58 47° SE
Cosmos 1812 Rocket 3.9 22:12:04 10° NNW 22:16:26 66° W 22:19:48 17° S
CENTAUR R/B 3.7 22:09:21 10° N 22:17:00 34° ENE 22:17:28 34° ENE
Yuri Rocket 3.8 22:14:04 10° WSW 22:19:09 41° S 22:19:09 41° S
ATLAS 3B CENTAUR R/B 3.5 22:18:05 10° NNW 22:22:09 28° NE 22:22:09 28° NE
SWIFT 3.9 22:21:41 10° NW 22:24:29 25° N 22:24:29 25° N
CZ-3B Rocket 3.2 22:20:32 10° W 22:29:46 38° NNW 22:31:16 29° NNE
Delta 2 Rocket 4.0 22:25:18 10° NW 22:31:08 53° NNE 22:31:34 52° NE
Delta 7925 Rocket 4.0 22:27:17 10° WSW 22:31:16 41° SSW 22:31:16 41° SSW
ARGOS 3.4 22:31:32 24° S 22:34:49 68° WSW 22:40:11 10° NNW
USA 267 3.1 22:33:57 47° NE 22:36:01 79° SE 22:42:37 10° SW
Cosmos 1680 Rocket 3.4 22:30:52 10° SSW 22:43:34 - NNE 22:36:08 86° SW
H-2A R/B 3.9 22:39:45 10° SSW 22:44:26 29° WSW 22:49:02 10° NW
Okean O Rocket 4.5 22:43:10 10° SW 22:45:35 15° WSW 22:48:00 10° WNW
CZ-4 R/B 3.1 22:51:19 31° WNW 22:51:19 31° WNW 22:54:09 10° NW
USA 238 DEB 4.2 22:51:18 10° NNW 22:57:17 53° NNE 22:57:17 53° NNE
USA 238 4.2 22:51:25 10° NNW 22:57:21 52° NNE 22:57:21 52° NNE
